Track STARLINK-1272 now! 10-day predictions STARLINK-1272 is classified as:
1 45386U 20019AC 21021.50323818 .00000246 00000-0 35436-4 0 9991 2 45386 53.0553 275.6589 0002067 77.0235 283.0984 15.06399883 47670